Weather History for KTCM - July, 2014

Change the Weather History Date:

Monday, July 28, 2014

  Actual Average Record
Temperature  
Mean Temperature 68 °F -  
Max Temperature 87 °F 76 °F 98 °F (1998)
Min Temperature 51 °F 52 °F 43 °F (1956)
Cooling Degree Days 4    
Growing Degree Days 18 (Base 50)    
Moisture  
Dew Point 52 °F    
Average Humidity 55    
Maximum Humidity 97    
Minimum Humidity 24    
Precipitation  
Precipitation 0.00 in - - ()
Sea Level Pressure  
Sea Level Pressure 30.11 in    
Wind  
Wind Speed 4 mph (NNE)    
Max Wind Speed 14 mph    
Max Gust Speed 17 mph    
Visibility 10 miles    
Events Rain    
Averages and records for this station are not official NWS values.
T = Trace of Precipitation, MM = Missing Value Source: NWS Daily Summary

Daily Weather History Graph

Daily Weather History Graph

Search for Another Location

Airport or City:

Trip Planner

Search our weather history database for the weather conditions in past years. The results will help you decide how hot, cold, wet, or windy it might be!

Date:

Astronomy

Jul. 28, 2014 Rise Set
Actual Time 5:44 AM PDT 8:47 PM PDT
Civil Twilight 5:07 AM PDT 9:24 PM PDT
Nautical Twilight 4:21 AM PDT 10:10 PM PDT
Astronomical Twilight 3:23 AM PDT 11:07 PM PDT
Moon 7:41 AM PDT (7/28) 9:19 PM PDT (7/28)
Length of Visible Light 16h 16m
Length of Day
15h 03m
Waxing Crescent, 3% of the Moon is Illuminated
Jul 28
Waxing Crescent
Aug 3
First Quarter
Aug 10
Full
Aug 17
Last Quarter
Aug 25
New

Hourly Weather History & Observations

Time (PDT) Temp. Dew Point Humidity Pressure Visibility Wind Dir Wind Speed Gust Speed Precip Events Conditions
12:58 AM 57.9 °F 52.2 °F 81% 30.12 in 10.0 mi SSW 2.3 mph - N/A   Clear
1:58 AM 55.2 °F 50.4 °F 84% 30.11 in 10.0 mi SSW 1.2 mph - N/A   Clear
2:58 AM 54.5 °F 51.4 °F 89% 30.11 in 10.0 mi SSW 3.5 mph - N/A   Clear
3:58 AM 52.7 °F 50.7 °F 93% 30.11 in 10.0 mi Calm Calm - N/A   Clear
4:58 AM 52.9 °F 51.4 °F 95% 30.12 in 10.0 mi SSW 3.5 mph - N/A   Clear
5:58 AM 51.4 °F 50.7 °F 97% 30.13 in 10.0 mi Calm Calm - N/A   Clear
6:58 AM 53.8 °F 53.1 °F 97% 30.14 in 10.0 mi South 2.3 mph - N/A   Clear
7:58 AM 62.1 °F 54.1 °F 75% 30.14 in 10.0 mi Calm Calm - N/A   Clear
8:58 AM 68.9 °F 54.7 °F 60% 30.15 in 10.0 mi North 1.2 mph - N/A   Clear
9:29 AM 71.6 °F 53.6 °F 53% 30.13 in 10.0 mi Variable 3.5 mph - N/A Rain Light Rain
9:31 AM 73.4 °F 53.6 °F 50% 30.13 in 10.0 mi North 4.6 mph - N/A   Unknown
9:33 AM 73.4 °F 53.6 °F 50% 30.13 in 10.0 mi North 4.6 mph - N/A Rain Light Rain
9:45 AM 71.6 °F 53.6 °F 53% 30.12 in 10.0 mi NNE 10.4 mph - N/A   Clear
9:58 AM 73.6 °F 53.2 °F 49% 30.13 in 10.0 mi NNE 10.4 mph - 0.00 in Rain Light Rain
10:09 AM 73.4 °F 53.6 °F 50% 30.12 in 10.0 mi North 5.8 mph - N/A   Clear
10:58 AM 75.6 °F 53.4 °F 46% 30.13 in 10.0 mi North 9.2 mph - 0.00 in Rain Light Rain
10:59 AM 75.2 °F 53.6 °F 47% 30.12 in 10.0 mi NNW 10.4 mph - N/A   Clear
11:58 AM 78.6 °F 52.9 °F 41% 30.13 in 10.0 mi NNE 8.1 mph - 0.00 in   Clear
12:58 PM 81.1 °F 52.2 °F 36% 30.12 in 10.0 mi NNE 9.2 mph - N/A   Clear
1:58 PM 83.5 °F 50.5 °F 32% 30.11 in 10.0 mi NNE 11.5 mph - N/A   Clear
2:58 PM 84.9 °F 49.8 °F 30% 30.11 in 10.0 mi NE 6.9 mph - N/A   Clear
3:58 PM 86.2 °F 49.6 °F 28% 30.10 in 10.0 mi NNE 10.4 mph - N/A   Clear
4:58 PM 86.5 °F 46.0 °F 24% 30.09 in 10.0 mi NNE 13.8 mph 17.3 mph N/A   Clear
5:58 PM 86.7 °F 49.5 °F 28% 30.08 in 10.0 mi North 10.4 mph - N/A   Clear
6:58 PM 85.1 °F 50.0 °F 30% 30.07 in 10.0 mi NNE 8.1 mph - N/A   Clear
7:58 PM 81.9 °F 48.9 °F 32% 30.07 in 10.0 mi NNE 5.8 mph - N/A   Clear
8:58 PM 77.0 °F 50.9 °F 40% 30.07 in 10.0 mi NE 2.3 mph - N/A   Clear
9:58 PM 72.7 °F 51.4 °F 47% 30.08 in 10.0 mi NNE 3.5 mph - N/A   Clear
10:58 PM 71.6 °F 51.8 °F 50% 30.08 in 10.0 mi Calm Calm - N/A   Clear
11:58 PM 63.5 °F 52.3 °F 67% 30.08 in 10.0 mi South 3.5 mph - N/A   Clear